CAPE
0 0 0 7 0 0 0 0 0 0 0 0 0 0 0 0 0 0 0 0 0 0 0 0 0 0 2116 4115 3970 3967 3314 3466 3655 3471 3851 3351 2972 3570 3190 3566 3359 3450 3280 3028
107 4 0 0 6 8 4 0 0 0 0 0 0 0 0 0 0 0 0 0 0 0 0 0 0 0 2881 4498 3342 3709 3110 3454 3195 2986 3669 3134 2929 2848 2997 2298 2701 3247 2844 2580
78 69 0 0 0 5 14 10 0 0 5 6 1 13 2 0 0 0 0 0 0 0 0 0 0 465 3739 2954 1977 2209 2245 3106 2951 2775 3164 3346 3313 3484 2526 2961 3294 3087 2630 2305
120 9 34 4 1 0 0 0 0 1 0 26 20 0 25 0 0 0 0 0 0 0 0 0 0 871 2812 2986 1643 313 1369 2484 2560 2631 3264 3603 3047 2574 2752 2756 3054 2864 2191 2307
31 109 71 32 24 0 0 1 3 0 2 19 23 0 0 0 0 0 0 0 0 0 0 0 0 644 1146 2478 3207 2330 2521 2597 2942 2735 3152 2884 3043 2834 2934 2816 2949 3017 2780 1685
2 5 61 84 58 37 0 1 6 30 27 33 10 8 0 0 0 0 0 0 0 0 0 0 0 129 675 1469 2667 3260 3476 3173 2880 2752 2334 3318 3077 2835 2713 2287 2465 2297 2092 2072
0 0 3 13 89 18 45 17 3 5 29 0 0 17 0 0 0 0 0 0 0 0 0 0 0 0 125 803 2658 3208 2909 3004 2376 2317 2958 3175 3408 2752 2823 2524 1846 2164 1683 1889
2 91 58 61 17 51 35 74 41 0 0 0 0 0 0 0 1 1 0 0 0 0 0 0 0 0 0 371 2818 2402 3029 2074 2377 2179 2774 2949 3248 2374 2207 2707 2176 1764 1559 1278
163 119 90 61 119 14 16 38 46 66 55 8 0 0 0 9 23 37 0 0 0 0 0 0 0 1 1390 2739 2238 2373 2006 2072 2222 1975 2098 2070 2081 2183 1660 1645 1499 958 849 606
31 53 45 45 4 120 86 84 160 133 63 0 29 1 0 1 6 0 484 138 0 0 0 0 923 2319 2220 1930 2087 1871 1610 1501 1488 1848 1751 1853 1691 1141 766 508 402 334 272 253
0 20 24 0 13 204 170 53 150 122 31 53 21 22 0 26 45 471 575 624 1187 1344 1575 1600 1518 1501 1362 1535 1359 1165 1095 900 902 1257 1343 1372 1172 583 99 41 17 5 6 6
0 0 32 0 14 156 169 14 114 126 59 67 95 356 987 253 788 601 176 333 809 1133 1107 1148 1127 1087 1186 1041 965 1011 503 551 1015 1046 932 641 307 137 58 27 13 12 8 3
0 0 12 98 32 97 162 90 28 156 154 102 88 662 475 596 282 31 84 315 518 712 793 1025 779 841 631 380 289 184 353 681 532 384 228 172 94 56 37 27 16 5 5 7
0 0 0 78 22 196 146 16 43 39 36 91 53 463 198 231 334 91 41 182 314 639 648 465 203 205 164 73 58 153 79 107 139 154 125 90 48 27 15 11 4 0 0 0
0 0 0 0 0 72 82 62 63 39 17 95 137 356 129 184 293 307 254 265 250 274 134 27 27 9 2 12 7 0 17 68 54 36 22 10 2 0 0 0 0 0 0 0
1 0 0 0 1 109 46 31 48 126 30 42 281 208 108 157 148 165 113 106 102 43 80 4 0 0 2 0 0 8 15 17 11 4 0 0 0 0 0 0 0 0 0 0
2 0 10 205 249 243 103 43 50 70 3 2 58 69 29 54 62 125 109 99 70 8 7 4 3 0 1 5 18 24 24 7 0 1 0 0 0 0 0 0 0 0 0 0
8 3 14 155 134 183 52 98 74 217 144 79 52 2 115 52 100 90 146 185 39 28 52 39 0 7 48 42 27 7 0 3 4 1 0 0 0 0 0 0 0 0 0 0
0 0 4 114 249 75 160 5 178 110 162 15 0 10 42 41 105 108 190 199 273 363 215 78 78 77 35 10 0 3 1 0 0 0 0 0 0 0 0 0 0 0 0 0
0 2 18 250 170 116 424 187 54 13 4 10 1 34 87 240 152 208 221 294 200 172 121 86 54 22 7 0 0 0 0 0 0 0 0 0 0 0 0 0 0 0 0 0
0 0 0 27 1 174 349 125 132 110 1 25 2 1 138 97 36 126 197 179 107 100 52 26 10 0 0 0 0 0 0 0 0 0 0 0 0 0 0 0 0 0 0 0
0 0 0 2 14 124 89 291 122 3 0 1 8 10 139 241 114 205 70 131 54 9 3 1 1 0 0 0 0 0 0 0 0 0 0 0 0 0 0 0 0 0 0 0
1 8 9 14 35 4 400 89 0 0 0 8 32 54 87 116 129 93 36 16 12 0 0 0 0 0 0 0 0 0 0 0 0 0 0 0 0 0 0 0 0 0 0 0
0 0 10 14 3 72 258 106 0 0 0 0 19 7 67 57 45 32 20 12 0 0 0 0 0 0 0 0 0 0 0 0 0 0 0 0 0 0 0 0 0 0 0 0
0 1 11 0 0 16 15 14 38 0 0 0 0 0 0 0 9 17 21 6 0 5 0 0 0 0 0 0 0 0 0 0 0 0 0 0 0 0 0 0 0 0 0 0
6 2 0 0 0 0 0 5 12 3 5 8 1 0 0 7 2 1 0 0 0 0 0 0 0 0 0 0 0 0 0 0 0 0 0 0 0 0 0 0 0 0 0 0
CIN
-0 -0 -0 -0 -0 -0 -0 -0 -0 -0 -0 -0 -0 -0 -0 -0 -0 -0 -0 -0 -0 -0 -0 -0 -0 -0 -12 -36 -68 -63 -73 -21 -7 -5 -1 -3 -7 -7 -15 -7 -11 -4 -3 -3
-0 -1 -0 -0 -0 -0 -0 -0 -0 -0 -0 -0 -0 -0 -0 -0 -0 -0 -0 -0 -0 -0 -0 -0 -0 -0 -14 -36 -88 -34 -58 -16 -6 -10 -0 -4 -9 -13 -20 -30 -18 -3 -6 -10
-0 -0 -0 -0 -0 -0 -0 -0 -0 -0 -0 -0 -0 -0 -0 -0 -0 -0 -0 -0 -0 -0 -0 -0 -0 -23 -39 -20 -35 -106 -23 -9 -11 -43 -15 -8 -10 -6 -22 -12 -7 -4 -5 -2
-0 -2 -0 -0 -0 -0 -0 -0 -0 -0 -1 -0 -0 -0 -0 -0 -0 -0 -0 -0 -0 -0 -0 -0 -0 -23 -12 -18 -12 -539 -152 -4 -29 -54 -8 -1 -4 -7 -3 -7 -9 -5 -4 -1
-14 -7 -5 -6 -1 -0 -0 -0 -0 -3 -2 -3 -4 -0 -0 -0 -0 -0 -0 -0 -0 -0 -0 -0 -0 -42 -23 -10 -4 -18 -13 -22 -34 -38 -3 -7 -4 -11 -5 -12 -9 -6 -1 -7
-37 -3 -4 -40 -2 -0 -0 -0 -4 -0 -0 -0 -5 -0 -0 -0 -0 -0 -0 -0 -0 -0 -0 -0 -0 -210 -91 -22 -6 -16 -0 -4 -12 -8 -36 -10 -12 -19 -15 -25 -18 -2 -10 -7
-0 -0 -0 -2 -2 -20 -11 -0 -0 -0 -0 -0 -0 -0 -0 -0 -0 -0 -0 -0 -0 -0 -0 -0 -0 -0 -226 -40 -8 -2 -2 -0 -15 -29 -10 -8 -4 -24 -26 -20 -22 -4 -10 -0
-0 -0 -16 -20 -40 -2 -29 -0 -0 -0 -0 -0 -0 -0 -0 -0 -11 -0 -0 -0 -0 -0 -0 -0 -0 -0 -0 -66 -25 -39 -0 -20 -2 -7 -9 -8 -2 -9 -14 -10 -7 -5 -11 -25
-0 -0 -32 -15 -6 -24 -2 -3 -0 -0 -0 -0 -0 -0 -0 -8 -19 -8 -0 -0 -0 -0 -0 -0 -0 -2 -36 -11 -32 -34 -35 -12 -3 -0 -1 -9 -12 -15 -35 -9 -6 -39 -44 -81
-1 -0 -13 -16 -28 -7 -4 -2 -0 -0 -0 -0 -0 -0 -0 -6 -17 -0 -64 -28 -4 -0 -0 -2 -59 -91 -47 -42 -26 -37 -52 -58 -21 -0 -0 -0 -6 -43 -101 -153 -165 -158 -144 -132
-0 -1 -0 -0 -7 -16 -0 -4 -0 -1 -2 -2 -0 -0 -0 -8 -5 -26 -222 -240 -148 -102 -118 -138 -112 -104 -140 -94 -68 -87 -80 -64 -14 -0 -0 -3 -31 -98 -156 -160 -132 -118 -201 -162
-0 -0 -0 -0 -28 -6 -1 -44 -6 -0 -1 -22 -10 -9 -98 -31 -36 -224 -334 -234 -144 -106 -104 -85 -94 -131 -122 -96 -80 -66 -98 -43 -7 -8 -41 -85 -108 -103 -120 -97 -80 -69 -40 -30
-0 -0 -5 -16 -24 -16 -34 -15 -61 -0 -0 -16 -3 -7 -91 -144 -170 -172 -353 -212 -147 -123 -113 -67 -109 -110 -117 -126 -130 -129 -68 -36 -65 -78 -95 -94 -100 -90 -77 -70 -56 -40 -33 -15
-0 -0 -0 -0 -3 -6 -14 -80 -8 -12 -3 -4 -5 -0 -54 -82 -98 -139 -264 -188 -148 -69 -62 -96 -149 -160 -156 -161 -144 -104 -137 -106 -92 -83 -86 -97 -83 -68 -56 -51 -19 -0 -0 -0
-0 -0 -0 -0 -0 -1 -44 -2 -17 -6 -25 -9 -1 -0 -67 -83 -48 -67 -45 -71 -62 -52 -85 -150 -178 -205 -54 -171 -36 -0 -166 -112 -107 -104 -100 -87 -19 -0 -0 -0 -0 -0 -0 -0
-2 -0 -0 -0 -0 -0 -21 -24 -27 -8 -29 -9 -2 -4 -40 -33 -48 -75 -76 -53 -32 -38 -27 -0 -0 -0 -0 -0 -0 -119 -96 -109 -100 -95 -0 -0 -0 -0 -0 -0 -0 -0 -0 -0
-3 -0 -23 -0 -6 -2 -29 -23 -42 -22 -0 -0 -4 -1 -34 -14 -21 -43 -40 -38 -43 -6 -0 -0 -0 -0 -0 -77 -107 -93 -85 -74 -0 -35 -0 -0 -0 -0 -0 -0 -0 -0 -0 -0
-6 -3 -12 -1 -0 -0 -19 -7 -67 -49 -37 -27 -3 -2 -0 -3 -6 -7 -8 -11 -27 -25 -29 -65 -0 -51 -60 -63 -78 -88 -14 -101 -96 -84 -0 -0 -0 -0 -0 -0 -0 -0 -0 -0
-0 -11 -7 -3 -2 -2 -0 -9 -72 -19 -15 -6 -0 -0 -0 -6 -12 -0 -0 -2 -1 -3 -25 -49 -28 -34 -56 -87 -28 -98 -18 -0 -0 -0 -0 -0 -0 -0 -0 -0 -0 -0 -0 -0
-0 -5 -0 -0 -0 -0 -9 -3 -55 -15 -13 -0 -0 -1 -1 -0 -6 -1 -0 -0 -8 -15 -27 -36 -46 -69 -93 -0 -0 -0 -0 -0 -0 -0 -0 -0 -0 -0 -0 -0 -0 -0 -0 -0
-0 -0 -0 -37 -0 -0 -0 -71 -64 -3 -0 -3 -0 -0 -0 -3 -74 -47 -3 -0 -1 -8 -31 -49 -64 -3 -0 -0 -0 -0 -0 -0 -0 -0 -0 -0 -0 -0 -0 -0 -0 -0 -0 -0
-0 -0 -0 -1 -3 -0 -14 -5 -4 -8 -0 -0 -0 -14 -0 -0 -16 -8 -9 -0 -0 -16 -24 -26 -14 -0 -0 -0 -0 -0 -0 -0 -0 -0 -0 -0 -0 -0 -0 -0 -0 -0 -0 -0
-0 -1 -0 -0 -17 -5 -5 -58 -0 -0 -0 -0 -2 -0 -0 -0 -0 -2 -15 -12 -6 -1 -0 -0 -0 -0 -0 -0 -0 -0 -0 -0 -0 -0 -0 -0 -0 -0 -0 -0 -0 -0 -0 -0
-0 -0 -1 -1 -10 -0 -0 -1 -0 -0 -0 -0 -1 -11 -1 -0 -0 -9 -3 -6 -1 -0 -0 -0 -0 -0 -0 -0 -0 -0 -0 -0 -0 -0 -0 -0 -0 -0 -0 -0 -0 -0 -0 -0
-0 -3 -8 -0 -0 -0 -0 -0 -0 -1 -0 -0 -3 -0 -0 -0 -2 -0 -2 -9 -0 -16 -0 -0 -0 -0 -0 -0 -0 -0 -0 -0 -0 -0 -0 -0 -0 -0 -0 -0 -0 -0 -0 -0
-0 -0 -0 -0 -0 -0 -0 -8 -0 -0 -0 -0 -0 -0 -0 -1 -0 -0 -0 -0 -6 -0 -0 -0 -0 -0 -0 -0 -0 -0 -0 -0 -0 -0 -0 -0 -0 -0 -0 -0 -0 -0 -0 -0
Wind_Speed
nan nan nan nan nan nan nan nan nan nan nan nan nan nan nan nan nan nan nan nan nan nan nan nan nan nan 28 37 42 40 44 43 42 34 35 33 32 38 36 41 48 43 41 42
29 nan nan nan nan nan nan nan nan nan nan nan nan nan nan nan nan nan nan nan nan nan nan nan nan nan 30 38 42 43 36 39 40 37 37 35 35 37 40 40 39 40 40 39
nan nan nan nan nan nan nan nan nan nan nan nan nan nan nan nan nan nan nan nan nan nan nan nan nan 20 32 40 42 39 27 32 30 39 35 35 38 39 38 38 39 38 38 41
5 nan nan nan nan nan nan nan nan nan nan nan nan nan nan nan nan nan nan nan nan nan nan nan nan 20 28 37 38 31 30 16 27 38 30 33 36 36 37 38 37 38 38 39
nan 8 nan nan nan nan nan nan nan nan nan nan nan nan nan nan nan nan nan nan nan nan nan nan nan 27 23 30 34 35 33 27 32 30 29 32 33 35 36 36 38 40 41 40
nan nan nan nan nan nan nan nan nan nan nan nan nan nan nan nan nan nan nan nan nan nan nan nan nan 34 20 28 33 35 32 29 30 28 28 26 29 33 39 38 37 39 40 40
nan nan nan nan nan nan nan nan nan nan nan nan nan nan nan nan nan nan nan nan nan nan nan nan nan nan 25 29 39 41 29 29 29 27 25 26 31 42 43 37 41 42 42 41
nan nan nan nan nan nan nan nan nan nan nan nan nan nan nan nan nan nan nan nan nan nan nan nan nan nan nan 29 46 37 26 31 29 29 29 34 38 41 41 39 43 42 43 43
8 1 nan nan 26 nan nan nan nan nan nan nan nan nan nan nan nan nan nan nan nan nan nan nan nan nan 48 52 47 27 38 37 34 34 36 38 40 43 43 43 40 42 41 39
nan nan nan nan nan 29 nan nan 27 37 nan nan nan nan nan nan nan nan 55 47 nan nan nan nan 51 60 57 53 39 42 41 43 41 39 40 42 45 46 44 43 44 43 39 38
nan nan nan nan nan 16 35 nan 27 33 nan nan nan nan nan nan nan 54 62 59 55 62 62 61 60 58 59 42 42 44 44 43 39 38 39 42 45 46 nan nan nan nan nan nan
nan nan nan nan nan 26 26 nan 45 41 nan nan nan 29 60 16 56 64 60 59 56 53 56 55 53 53 41 48 46 46 45 43 40 40 41 44 42 39 nan nan nan nan nan nan
nan nan nan nan nan nan 40 nan nan 40 25 34 nan 38 58 56 56 nan nan 62 58 51 47 46 44 44 49 50 48 47 44 43 42 42 41 39 nan nan nan nan nan nan nan nan
nan nan nan nan nan 20 16 nan nan nan nan nan nan 30 51 60 45 nan nan 52 55 51 50 50 50 52 52 nan nan 44 nan 43 40 39 37 nan nan nan nan nan nan nan nan nan
nan nan nan nan nan nan nan nan nan nan nan nan 39 13 37 52 50 53 47 44 51 52 53 nan nan nan nan nan nan nan nan nan nan nan nan nan nan nan nan nan nan nan nan nan
nan nan nan nan nan 13 nan nan nan 38 nan nan 17 37 32 42 49 53 54 46 51 nan nan nan nan nan nan nan nan nan nan nan nan nan nan nan nan nan nan nan nan nan nan nan
nan nan nan 9 4 9 24 nan nan nan nan nan nan nan nan nan nan 37 45 nan nan nan nan nan nan nan nan nan nan nan nan nan nan nan nan nan nan nan nan nan nan nan nan nan
nan nan nan 15 7 8 nan nan nan 53 46 nan nan nan 34 nan 38 nan 44 45 nan nan nan nan nan nan nan nan nan nan nan nan nan nan nan nan nan nan nan nan nan nan nan nan
nan nan nan 17 19 nan 34 nan 46 29 43 nan nan nan nan nan 48 49 45 46 42 41 39 nan nan nan nan nan nan nan nan nan nan nan nan nan nan nan nan nan nan nan nan nan
nan nan nan 14 21 20 33 35 nan nan nan nan nan nan nan 35 46 45 46 44 42 42 37 nan nan nan nan nan nan nan nan nan nan nan nan nan nan nan nan nan nan nan nan nan
nan nan nan nan nan 22 22 16 17 14 nan nan nan nan 38 nan nan 38 42 44 44 42 nan nan nan nan nan nan nan nan nan nan nan nan nan nan nan nan nan nan nan nan nan nan
nan nan nan nan nan 23 nan 31 27 nan nan nan nan nan 42 39 39 42 nan 42 nan nan nan nan nan nan nan nan nan nan nan nan nan nan nan nan nan nan nan nan nan nan nan nan
nan nan nan nan nan nan 31 nan nan nan nan nan nan nan nan 37 41 nan nan nan nan nan nan nan nan nan nan nan nan nan nan nan nan nan nan nan nan nan nan nan nan nan nan nan
nan nan nan nan nan nan 6 16 nan nan nan nan nan nan nan nan nan nan nan nan nan nan nan nan nan nan nan nan nan nan nan nan nan nan nan nan nan nan nan nan nan nan nan nan
nan nan nan nan nan nan nan nan nan nan nan nan nan nan nan nan nan nan nan nan nan nan nan nan nan nan nan nan nan nan nan nan nan nan nan nan nan nan nan nan nan nan nan nan
nan nan nan nan nan nan nan nan nan nan nan nan nan nan nan nan nan nan nan nan nan nan nan nan nan nan nan nan nan nan nan nan nan nan nan nan nan nan nan nan nan nan nan nan
Wind_Direction
nan nan nan nan nan nan nan nan nan nan nan nan nan nan nan nan nan nan nan nan nan nan nan nan nan nan 277 272 272 266 261 264 268 270 270 274 272 268 273 272 276 281 287 291
227 nan nan nan nan nan nan nan nan nan nan nan nan nan nan nan nan nan nan nan nan nan nan nan nan nan 279 267 261 259 250 261 260 262 263 259 264 266 267 269 278 286 290 291
nan nan nan nan nan nan nan nan nan nan nan nan nan nan nan nan nan nan nan nan nan nan nan nan nan 273 276 262 257 266 247 248 245 259 253 259 261 267 271 277 279 283 291 292
118 nan nan nan nan nan nan nan nan nan nan nan nan nan nan nan nan nan nan nan nan nan nan nan nan 276 270 266 276 270 287 275 249 258 257 268 267 270 271 277 282 284 282 279
nan 167 nan nan nan nan nan nan nan nan nan nan nan nan nan nan nan nan nan nan nan nan nan nan nan 272 269 260 268 291 280 263 258 259 258 260 262 264 269 276 282 280 283 280
nan nan nan nan nan nan nan nan nan nan nan nan nan nan nan nan nan nan nan nan nan nan nan nan nan 271 263 264 266 268 267 266 268 260 258 263 266 277 279 287 284 285 284 286
nan nan nan nan nan nan nan nan nan nan nan nan nan nan nan nan nan nan nan nan nan nan nan nan nan nan 266 266 271 268 272 270 269 268 268 274 276 276 280 285 287 288 288 289
nan nan nan nan nan nan nan nan nan nan nan nan nan nan nan nan nan nan nan nan nan nan nan nan nan nan nan 268 265 270 271 265 264 265 269 269 272 276 277 274 282 285 287 288
231 282 nan nan 152 nan nan nan nan nan nan nan nan nan nan nan nan nan nan nan nan nan nan nan nan nan 254 259 264 262 259 259 259 258 261 266 268 274 275 275 280 281 287 294
nan nan nan nan nan 148 nan nan 194 174 nan nan nan nan nan nan nan nan 224 240 nan nan nan nan 241 248 252 257 260 253 256 255 252 253 259 264 268 269 270 272 275 280 284 288
nan nan nan nan nan 113 162 nan 192 168 nan nan nan nan nan nan nan 225 230 234 233 226 230 237 242 245 249 258 256 256 256 255 253 257 262 265 264 266 nan nan nan nan nan nan
nan nan nan nan nan 136 160 nan 154 183 nan nan nan 219 185 196 237 240 236 235 238 237 241 244 248 252 256 249 253 254 252 254 257 257 259 260 266 272 nan nan nan nan nan nan
nan nan nan nan nan nan 163 nan nan 164 163 150 nan 201 196 219 225 nan nan 238 235 236 239 243 246 243 245 248 250 252 254 255 256 257 261 265 nan nan nan nan nan nan nan nan
nan nan nan nan nan 131 194 nan nan nan nan nan nan 205 202 211 235 nan nan 233 232 233 233 237 239 241 243 nan nan 250 nan 255 259 261 263 nan nan nan nan nan nan nan nan nan
nan nan nan nan nan nan nan nan nan nan nan nan 185 252 213 214 224 242 248 241 226 226 229 nan nan nan nan nan nan nan nan nan nan nan nan nan nan nan nan nan nan nan nan nan
nan nan nan nan nan 99 nan nan nan 145 nan nan 189 239 211 220 224 232 239 235 224 nan nan nan nan nan nan nan nan nan nan nan nan nan nan nan nan nan nan nan nan nan nan nan
nan nan nan 120 49 71 152 nan nan nan nan nan nan nan nan nan nan 225 228 nan nan nan nan nan nan nan nan nan nan nan nan nan nan nan nan nan nan nan nan nan nan nan nan nan
nan nan nan 141 199 174 nan nan nan 208 219 nan nan nan 219 nan 213 nan 209 221 nan nan nan nan nan nan nan nan nan nan nan nan nan nan nan nan nan nan nan nan nan nan nan nan
nan nan nan 137 144 nan 149 nan 201 209 211 nan nan nan nan nan 216 202 207 208 212 216 214 nan nan nan nan nan nan nan nan nan nan nan nan nan nan nan nan nan nan nan nan nan
nan nan nan 121 128 164 214 252 nan nan nan nan nan nan nan 211 207 200 203 209 210 214 217 nan nan nan nan nan nan nan nan nan nan nan nan nan nan nan nan nan nan nan nan nan
nan nan nan nan nan 153 193 231 270 184 nan nan nan nan 198 nan nan 218 214 214 217 221 nan nan nan nan nan nan nan nan nan nan nan nan nan nan nan nan nan nan nan nan nan nan
nan nan nan nan nan 169 nan 162 192 nan nan nan nan nan 210 207 212 217 nan 218 nan nan nan nan nan nan nan nan nan nan nan nan nan nan nan nan nan nan nan nan nan nan nan nan
nan nan nan nan nan nan 173 nan nan nan nan nan nan nan nan 214 220 nan nan nan nan nan nan nan nan nan nan nan nan nan nan nan nan nan nan nan nan nan nan nan nan nan nan nan
nan nan nan nan nan nan 238 227 nan nan nan nan nan nan nan nan nan nan nan nan nan nan nan nan nan nan nan nan nan nan nan nan nan nan nan nan nan nan nan nan nan nan nan nan
nan nan nan nan nan nan nan nan nan nan nan nan nan nan nan nan nan nan nan nan nan nan nan nan nan nan nan nan nan nan nan nan nan nan nan nan nan nan nan nan nan nan nan nan
nan nan nan nan nan nan nan nan nan nan nan nan nan nan nan nan nan nan nan nan nan nan nan nan nan nan nan nan nan nan nan nan nan nan nan nan nan nan nan nan nan nan nan nan